Location: Linz
(48.3300°N, 14.3000°E)
Time: 06:42:35
(UTC+01:00)

OTV 5 (USA 277) - Pass Details

Date: 18 November 2017
Orbit: 404 x 417 km, 43.0° (Epoch: 07 September)

Event Time Altitude Azimuth Distance (km) Brightness Sun altitude
Exits shadow 06:26:13 - 249° (WSW) 1,823 ? -8.2°
Reaches altitude 10° 06:28:10 10° 222° (SW) 1,453 ? -7.9°
Maximum altitude 06:28:54 11° 209° (SSW) 1,419 ? -7.8°
Drops below altitude 10° 06:29:37 10° 196° (SSW) 1,452 ? -7.6°
Sets 06:33:12 0° 155° (SSE) 2,306 ? -7.1°
